EN

Hourly Weather Aathal

Today, 4 December, Friday

Time Temperature Precipitation Wind Pressure Humidity
00:00 +1°C° 0 mm 1 mps 698 mmHg 70%
01:00 -1°C° 0 mm 2 mps 698 mmHg 68%
02:00 +1°C° 0 mm 1 mps 697 mmHg 69%
03:00 +1°C° 0 mm 1 mps 697 mmHg 69%
04:00 +1°C° 0 mm 1 mps 696 mmHg 70%
05:00 -1°C° 0 mm 2 mps 696 mmHg 71%
06:00 -1°C° 0 mm 2 mps 696 mmHg 72%
07:00 +1°C° 0 mm 1 mps 696 mmHg 73%
08:00 +2°C° 0 mm 1 mps 696 mmHg 71%
09:00 +3°C° 0 mm 1 mps 695 mmHg 69%
10:00 +4°C° 0 mm 1 mps 695 mmHg 67%
11:00 +4°C° 0 mm 1 mps 695 mmHg 67%
12:00 +5°C° 0 mm 1 mps 695 mmHg 66%
13:00 +5°C° 0 mm 1 mps 694 mmHg 65%
14:00 +4°C° 0.1 mm 1 mps 694 mmHg 70%
15:00 +4°C° 0.1 mm 1 mps 694 mmHg 76%
16:00 +3°C° 0.1 mm 1 mps 694 mmHg 81%
17:00 +2°C° 0 mm 1 mps 694 mmHg 84%
18:00 +2°C° 0 mm 1 mps 695 mmHg 87%
19:00 +1°C° 0 mm 1 mps 695 mmHg 91%
20:00 +1°C° 0.2 mm 1 mps 695 mmHg 93%
21:00 0°C° 0.2 mm 0 mps 695 mmHg 95%
22:00 0°C° 0.2 mm 0 mps 695 mmHg 98%
23:00 0°C° 1.1 mm 0 mps 695 mmHg 98%

Tomorrow, 5 December, Saturday

Time Temperature Precipitation Wind Pressure Humidity
00:00 0°C° 1.1 mm 0 mps 695 mmHg 98%
01:00 0°C° 1.1 mm 0 mps 696 mmHg 99%
02:00 0°C° 1.2 mm 0 mps 696 mmHg 99%
03:00 +2°C° 1.2 mm 1 mps 696 mmHg 99%
04:00 +2°C° 1.2 mm 1 mps 697 mmHg 99%
05:00 +2°C° 0.8 mm 1 mps 698 mmHg 99%
06:00 +2°C° 0.8 mm 1 mps 698 mmHg 99%
07:00 +1°C° 0.8 mm 0 mps 699 mmHg 99%
08:00 +1°C° 0.2 mm 0 mps 699 mmHg 98%
09:00 +2°C° 0.2 mm 0 mps 700 mmHg 97%
10:00 +2°C° 0.2 mm 0 mps 700 mmHg 96%
11:00 +3°C° 0.1 mm 1 mps 700 mmHg 96%
12:00 +4°C° 0.1 mm 1 mps 700 mmHg 96%
13:00 +4°C° 0.1 mm 1 mps 700 mmHg 95%
14:00 +4°C° 0.3 mm 1 mps 700 mmHg 96%
15:00 +3°C° 0.3 mm 1 mps 700 mmHg 97%
16:00 +2°C° 0.3 mm 2 mps 699 mmHg 97%
17:00 +2°C° 0.1 mm 1 mps 699 mmHg 97%
18:00 +2°C° 0.1 mm 1 mps 699 mmHg 97%
19:00 +1°C° 0.1 mm 1 mps 699 mmHg 97%
20:00 +2°C° 0.5 mm 1 mps 699 mmHg 98%
21:00 +2°C° 0.5 mm 1 mps 699 mmHg 98%
22:00 +2°C° 0.5 mm 1 mps 699 mmHg 99%
23:00 +2°C° 1.5 mm 1 mps 700 mmHg 99%

Day after tomorrow, 6 December, Sunday

Time Temperature Precipitation Wind Pressure Humidity
00:00 +1°C° 1.5 mm 0 mps 700 mmHg 99%
01:00 +1°C° 1.5 mm 0 mps 700 mmHg 99%
02:00 +1°C° 1.1 mm 0 mps 700 mmHg 99%
03:00 +1°C° 1.1 mm 0 mps 700 mmHg 99%
04:00 +1°C° 1.1 mm 0 mps 700 mmHg 99%
05:00 +1°C° 0.6 mm 0 mps 700 mmHg 99%
06:00 +1°C° 0.6 mm 0 mps 700 mmHg 99%
07:00 +1°C° 0.6 mm 0 mps 701 mmHg 99%
08:00 +1°C° 0.2 mm 0 mps 701 mmHg 99%
09:00 +2°C° 0.2 mm 0 mps 701 mmHg 99%
10:00 +2°C° 0.2 mm 0 mps 701 mmHg 98%
11:00 +2°C° 0.2 mm 0 mps 701 mmHg 98%
12:00 +3°C° 0.2 mm 0 mps 701 mmHg 98%
13:00 +3°C° 0.2 mm 0 mps 700 mmHg 98%
14:00 +3°C° 0.2 mm 0 mps 700 mmHg 98%
15:00 +2°C° 0.2 mm 0 mps 699 mmHg 98%
16:00 +2°C° 0.2 mm 0 mps 699 mmHg 99%
17:00 +2°C° 1.2 mm 0 mps 699 mmHg 99%
18:00 +1°C° 1.2 mm 0 mps 699 mmHg 99%
19:00 +1°C° 1.2 mm 0 mps 699 mmHg 99%
20:00 +1°C° 1.6 mm 0 mps 699 mmHg 99%
21:00 +1°C° 1.6 mm 0 mps 699 mmHg 99%
22:00 +2°C° 1.6 mm 1 mps 699 mmHg 99%
23:00 +2°C° 0.7 mm 1 mps 699 mmHg 99%

7 December, Monday

Time Temperature Precipitation Wind Pressure Humidity
00:00 +2°C° 0.7 mm 1 mps 699 mmHg 99%
01:00 +2°C° 0.7 mm 1 mps 699 mmHg 99%
02:00 +2°C° 0.7 mm 1 mps 699 mmHg 99%
03:00 +2°C° 0.7 mm 1 mps 698 mmHg 99%
04:00 +2°C° 0.7 mm 1 mps 698 mmHg 99%
05:00 +2°C° 0.7 mm 1 mps 699 mmHg 99%
06:00 +2°C° 0.7 mm 1 mps 699 mmHg 99%
07:00 +2°C° 0.7 mm 1 mps 699 mmHg 99%
08:00 +2°C° 0.2 mm 1 mps 699 mmHg 99%
09:00 +2°C° 0.2 mm 1 mps 699 mmHg 98%
10:00 +2°C° 0.2 mm 1 mps 700 mmHg 98%
11:00 +2°C° 0 mm 1 mps 700 mmHg 98%
12:00 +3°C° 0 mm 1 mps 700 mmHg 98%
13:00 +3°C° 0 mm 1 mps 700 mmHg 98%
14:00 +3°C° 0 mm 1 mps 700 mmHg 98%
15:00 +2°C° 0 mm 1 mps 700 mmHg 98%
16:00 +2°C° 0 mm 1 mps 701 mmHg 98%
17:00 +2°C° 0.1 mm 1 mps 701 mmHg 98%
18:00 +1°C° 0.1 mm 1 mps 702 mmHg 97%
19:00 +1°C° 0.1 mm 1 mps 702 mmHg 97%
20:00 0°C° 0 mm 1 mps 702 mmHg 96%
21:00 0°C° 0 mm 1 mps 702 mmHg 94%
22:00 -1°C° 0 mm 1 mps 702 mmHg 93%
23:00 -1°C° 0 mm 1 mps 702 mmHg 92%

8 December, Tuesday

Time Temperature Precipitation Wind Pressure Humidity
00:00 -1°C° 0 mm 1 mps 702 mmHg 91%
01:00 -2°C° 0 mm 1 mps 702 mmHg 91%
02:00 -2°C° 0 mm 1 mps 702 mmHg 90%
03:00 -2°C° 0 mm 1 mps 702 mmHg 89%
04:00 -2°C° 0 mm 1 mps 702 mmHg 89%
05:00 -3°C° 0 mm 1 mps 702 mmHg 89%
06:00 -3°C° 0 mm 1 mps 703 mmHg 88%
07:00 -3°C° 0 mm 1 mps 703 mmHg 88%
08:00 -2°C° 0 mm 1 mps 703 mmHg 88%
09:00 -2°C° 0 mm 1 mps 703 mmHg 88%
10:00 -2°C° 0 mm 0 mps 703 mmHg 88%
11:00 -1°C° 0 mm 0 mps 703 mmHg 87%
12:00 0°C° 0 mm 0 mps 703 mmHg 87%
13:00 0°C° 0 mm 0 mps 702 mmHg 87%
14:00 0°C° 0 mm 0 mps 702 mmHg 89%
15:00 -1°C° 0 mm 0 mps 702 mmHg 91%
16:00 -2°C° 0 mm 0 mps 703 mmHg 93%
17:00 -2°C° 0 mm 0 mps 703 mmHg 92%
18:00 -3°C° 0 mm 0 mps 703 mmHg 92%
19:00 -3°C° 0 mm 1 mps 704 mmHg 92%
20:00 -3°C° 0 mm 1 mps 704 mmHg 91%
21:00 -3°C° 0 mm 1 mps 704 mmHg 90%
22:00 -3°C° 0 mm 1 mps 704 mmHg 89%
23:00 -3°C° 0 mm 1 mps 704 mmHg 89%

9 December, Wednesday

Time Temperature Precipitation Wind Pressure Humidity
00:00 -3°C° 0 mm 1 mps 705 mmHg 88%
01:00 -4°C° 0 mm 1 mps 705 mmHg 87%
02:00 -4°C° 0 mm 1 mps 705 mmHg 87%
03:00 -4°C° 0 mm 1 mps 705 mmHg 87%
04:00 -4°C° 0 mm 1 mps 705 mmHg 86%
05:00 -4°C° 0 mm 1 mps 705 mmHg 86%
06:00 -4°C° 0 mm 1 mps 706 mmHg 86%
07:00 -4°C° 0 mm 1 mps 706 mmHg 86%
08:00 -3°C° 0 mm 1 mps 706 mmHg 86%
09:00 -3°C° 0 mm 0 mps 706 mmHg 86%
10:00 -2°C° 0 mm 0 mps 707 mmHg 86%
11:00 -1°C° 0 mm 0 mps 707 mmHg 86%
12:00 0°C° 0 mm 0 mps 707 mmHg 86%
13:00 0°C° 0 mm 0 mps 706 mmHg 87%
14:00 0°C° 0 mm 0 mps 706 mmHg 89%
15:00 -1°C° 0 mm 0 mps 706 mmHg 92%
16:00 -2°C° 0 mm 0 mps 706 mmHg 94%
17:00 -2°C° 0 mm 0 mps 706 mmHg 94%
18:00 -2°C° 0 mm 1 mps 706 mmHg 93%
19:00 -3°C° 0 mm 1 mps 707 mmHg 93%
20:00 -3°C° 0 mm 1 mps 707 mmHg 92%
21:00 -3°C° 0 mm 1 mps 707 mmHg 91%
22:00 -3°C° 0 mm 1 mps 707 mmHg 90%
23:00 -3°C° 0 mm 1 mps 707 mmHg 90%
Show more